Lid_Strength_Index
2 2 2 2 2 1 2 1 1 1 0 0 0 0 0 0 -0 0 1 2 2 2 3 4 3 4 5 5 5 4 4 6 6 6 6 6 6 7 6 5 5 5 6
2 2 2 2 2 2 2 2 1 1 1 1 1 1 1 1 1 2 2 3 4 4 5 5 5 6 6 5 6 7 5 6 7 8 7 7 7 5 5 6 7 7 7
3 3 2 2 2 2 2 2 1 1 1 0 0 0 1 1 1 2 2 3 4 4 5 5 5 6 6 7 8 8 7 7 5 7 7 6 8 6 7 7 8 8 9
3 4 3 3 3 3 2 2 2 1 1 1 0 0 0 0 1 2 3 4 5 4 5 5 6 6 7 8 7 9 7 10 9 8 10 9 8 7 8 10 11 11 11
3 3 3 2 3 3 3 3 2 1 2 2 1 1 0 1 1 2 3 3 4 6 7 7 7 7 8 8 8 9 10 10 11 11 12 11 10 10 11 12 13 12 11
2 2 2 2 2 2 2 2 2 2 2 1 1 1 2 3 8 8 5 5 7 8 9 8 8 9 10 10 10 10 9 12 12 12 12 12 12 12 12 12 13 13 13
2 2 2 2 2 2 2 2 2 2 2 2 2 2 2 3 9 9 9 7 8 8 9 10 10 11 12 12 13 13 12 12 12 11 13 13 13 12 12 13 13 13 13
2 2 2 2 2 2 2 2 1 1 2 3 3 4 4 6 10 11 12 9 9 10 10 10 12 13 13 14 14 15 14 13 13 13 12 12 12 12 12 13 13 13 12
3 2 2 2 2 2 2 2 4 5 7 8 7 8 9 11 12 12 11 12 13 14 13 13 13 14 13 13 14 15 14 14 13 14 14 14 14 15 14 13 14 14 14
3 2 2 2 2 3 6 7 8 8 10 11 11 10 12 12 13 13 12 14 15 16 15 15 15 14 14 14 14 14 15 15 15 15 15 15 15 15 16 15 14 15 15
3 3 4 4 5 6 8 9 10 11 13 14 15 14 13 12 13 13 13 14 15 16 16 16 15 14 14 14 14 14 15 15 17 17 16 16 16 16 16 16 16 15 15
6 7 8 8 9 9 10 11 13 13 15 16 16 16 16 14 14 14 14 14 15 16 16 16 15 14 14 15 15 16 17 17 17 17 18 18 18 18 17 17 16 15 14
9 10 11 10 10 11 12 13 14 14 15 15 16 17 17 17 16 15 15 15 15 16 15 15 14 14 15 16 17 17 17 17 18 18 18 18 18 18 17 17 15 14 14
10 11 11 12 13 13 13 13 13 14 15 16 16 17 18 18 18 18 17 17 17 16 16 15 15 16 16 17 17 17 17 18 18 18 19 18 18 18 19 17 17 16 16
12 13 14 14 15 15 15 14 14 14 13 14 15 16 18 19 18 17 17 17 17 16 16 16 17 18 17 18 18 18 18 18 19 19 19 20 20 19 19 18 18 17 17
14 14 14 14 15 15 16 17 15 15 15 15 16 16 17 17 16 16 16 16 16 17 17 18 19 18 18 18 18 18 19 20 20 21 21 20 20 20 20 18 18 17 17
15 15 15 15 15 16 16 17 18 17 15 16 16 16 16 16 16 15 15 16 17 17 18 19 19 19 18 19 19 20 21 20 21 21 21 20 20 20 20 19 18 18 17
16 16 16 17 17 17 17 18 18 18 19 18 16 16 16 16 16 16 16 16 17 17 17 18 18 19 19 19 20 21 20 20 20 21 21 21 20 20 20 19 18 18 17
17 17 17 17 16 17 17 17 17 18 18 17 17 17 16 16 16 17 17 17 18 18 18 19 19 19 19 20 20 21 21 21 22 22 21 21 20 20 20 18 17 18 17
19 19 18 18 18 18 17 17 17 17 17 18 18 18 17 17 18 18 18 18 18 19 19 19 19 20 20 21 21 21 21 21 21 21 20 19 19 18 19 18 17 17 16
19 19 19 19 18 18 18 18 18 17 18 19 19 19 20 19 19 19 20 20 20 20 21 21 21 21 21 21 21 21 21 21 20 20 19 19 19 19 17 17 16 16 15
17 18 18 19 19 19 19 19 19 19 20 21 21 21 21 20 21 21 21 22 22 22 21 22 22 22 22 22 22 21 21 21 20 20 19 19 19 18 17 17 16 15 15
19 19 20 20 20 21 21 21 21 21 21 21 21 21 22 22 22 23 23 23 23 23 23 23 23 23 21 22 21 21 22 21 20 20 20 19 18 18 17 17 16 16 15
20 20 21 22 22 22 22 22 23 23 23 23 22 23 23 24 24 24 24 24 23 23 23 23 23 23 23 22 21 21 20 20 20 19 19 19 19 18 17 16 16 15 14
22 23 23 23 24 24 24 24 24 24 24 24 24 24 24 24 24 23 23 23 24 23 23 23 23 22 22 23 23 22 22 22 20 20 19 19 18 18 17 16 15 14 13
24 24 24 24 24 24 24 24 25 25 25 24 24 24 23 23 23 23 23 23 23 23 23 22 22 23 23 22 21 21 22 23 22 21 19 18 17 16 15 15 14 13 13